Weather History for Chipley, FL

Change the Weather History Date:

Sunday, January 13, 2013

  Actual Average (KMAI) Record (KMAI)
Temperature  
Mean Temperature 65 °F 50 °F  
Max Temperature 77 °F 61 °F 80 °F (2013)
Min Temperature 53 °F 39 °F 24 °F (2011)
Degree Days  
Heating Degree Days 0    
Month to date heating degree days  
Since 1 July heating degree days  
Cooling Degree Days 0    
Month to date cooling degree days  
Year to date cooling degree days  
Growing Degree Days 15 (Base 50)    
Moisture  
Dew Point 66 °F    
Average Humidity 90    
Maximum Humidity 100    
Minimum Humidity 78    
Precipitation  
Precipitation 0.00 in 0.15 in 2.48 in (2005)
Month to date precipitation 2.02  
Year to date precipitation 2.02  
Sea Level Pressure  
Sea Level Pressure 29.96 in    
Wind  
Wind Speed 11 mph (South)    
Max Wind Speed 18 mph    
Max Gust Speed 31 mph    
Visibility 8 miles    
Events      
T = Trace of Precipitation, MM = Missing Value Source: NWS Daily Summary

Daily Weather History Graph

Daily Weather History Graph

Search for Another Location

Airport:

Trip Planner

Search our weather history database for the weather conditions in past years. The results will help you decide how hot, cold, wet, or windy it might be!

Date:

Astronomy

Jan. 13, 2013 Rise Set
Actual Time 6:40 AM CST 5:01 PM CST
Civil Twilight 6:14 AM CST 5:27 PM CST
Nautical Twilight 5:45 AM CST 5:57 PM CST
Astronomical Twilight 5:15 AM CST 6:26 PM CST
Moon 7:50 AM CST (1/13) 7:26 PM CST (1/13)
Length of Visible Light 11h 13m
Length of Day
10h 20m
Waxing Crescent, 5% of the Moon is Illuminated
Jan 13
Waxing Crescent
Jan 18
First Quarter
Jan 26
Full
Feb 3
Last Quarter
Feb 10
New

Hourly Weather History & Observations

Time (CST) Temp. Dew Point Humidity Pressure Visibility Wind Dir Wind Speed Gust Speed Precip Events Conditions
12:15 AM 71.6 °F 69.8 °F 94% 29.94 in 9.0 mi South 10.4 mph 16.1 mph N/A   Overcast
12:35 AM 71.6 °F 69.8 °F 94% 29.93 in 8.0 mi South 9.2 mph 17.3 mph N/A   Overcast
12:55 AM 71.6 °F 69.8 °F 94% 29.93 in 8.0 mi South 11.5 mph - N/A   Overcast
1:15 AM 71.6 °F 69.8 °F 94% 29.93 in 8.0 mi South 12.7 mph 18.4 mph N/A   Overcast
1:35 AM 71.6 °F 69.8 °F 94% 29.92 in 8.0 mi South 12.7 mph 16.1 mph N/A   Mostly Cloudy
1:55 AM 71.6 °F 69.8 °F 94% 29.92 in 10.0 mi South 10.4 mph 17.3 mph N/A   Mostly Cloudy
2:15 AM 71.6 °F 68.0 °F 88% 29.92 in 10.0 mi South 11.5 mph 16.1 mph N/A   Partly Cloudy
2:35 AM 71.6 °F 68.0 °F 88% 29.93 in 10.0 mi South 11.5 mph 17.3 mph N/A   Clear
2:55 AM 71.6 °F 68.0 °F 88% 29.93 in 10.0 mi South 11.5 mph - N/A   Clear
3:15 AM 71.6 °F 68.0 °F 88% 29.93 in 10.0 mi South 5.8 mph - N/A   Scattered Clouds
3:35 AM 71.6 °F 68.0 °F 88% 29.93 in 9.0 mi South 5.8 mph - N/A   Mostly Cloudy
3:55 AM 71.6 °F 69.8 °F 94% 29.93 in 8.0 mi South 12.7 mph 17.3 mph N/A   Overcast
4:15 AM 71.6 °F 69.8 °F 94% 29.93 in 8.0 mi South 8.1 mph - N/A   Overcast
4:35 AM 71.6 °F 69.8 °F 94% 29.93 in 7.0 mi South 10.4 mph 16.1 mph N/A   Overcast
4:55 AM 71.6 °F 69.8 °F 94% 29.92 in 7.0 mi South 8.1 mph - N/A   Overcast
5:15 AM 69.8 °F 69.8 °F 100% 29.92 in 7.0 mi South 9.2 mph - N/A   Overcast
5:35 AM 69.8 °F 68.0 °F 94% 29.92 in 6.0 mi South 12.7 mph - N/A   Overcast
5:55 AM 69.8 °F 68.0 °F 94% 29.93 in 7.0 mi South 11.5 mph 18.4 mph N/A   Overcast
6:15 AM 69.8 °F 68.0 °F 94% 29.91 in 7.0 mi South 11.5 mph 16.1 mph N/A   Overcast
6:35 AM 69.8 °F 68.0 °F 94% 29.92 in 8.0 mi South 12.7 mph 17.3 mph N/A   Overcast
6:55 AM 69.8 °F 68.0 °F 94% 29.92 in 8.0 mi South 13.8 mph 20.7 mph N/A   Overcast
7:15 AM 69.8 °F 68.0 °F 94% 29.92 in 8.0 mi South 13.8 mph 20.7 mph N/A   Overcast
7:35 AM 71.6 °F 68.0 °F 88% 29.91 in 7.0 mi South 16.1 mph 23.0 mph N/A   Overcast
7:55 AM 71.6 °F 69.8 °F 94% 29.92 in 7.0 mi South 17.3 mph 27.6 mph N/A   Overcast
8:15 AM 71.6 °F 69.8 °F 94% 29.93 in 7.0 mi South 15.0 mph 19.6 mph N/A   Overcast
8:35 AM 71.6 °F 69.8 °F 94% 29.93 in 7.0 mi South 15.0 mph 25.3 mph N/A   Overcast
8:55 AM 71.6 °F 69.8 °F 94% 29.94 in 7.0 mi South 11.5 mph 21.9 mph N/A   Overcast
9:15 AM 73.4 °F 69.8 °F 88% 29.95 in 8.0 mi South 12.7 mph 23.0 mph N/A   Overcast
9:35 AM 73.4 °F 69.8 °F 88% 29.96 in 8.0 mi South 13.8 mph 24.2 mph N/A   Overcast
10:15 AM 73.4 °F 69.8 °F 88% 29.97 in 8.0 mi South 12.7 mph 21.9 mph N/A   Overcast
10:35 AM 73.4 °F 69.8 °F 88% 29.97 in 8.0 mi SSW 9.2 mph 18.4 mph N/A   Overcast
10:55 AM 73.4 °F 69.8 °F 88% 29.97 in 8.0 mi South 10.4 mph 26.5 mph N/A   Overcast
11:15 AM 75.2 °F 69.8 °F 83% 29.96 in 7.0 mi South 11.5 mph 20.7 mph N/A   Mostly Cloudy
11:35 AM 75.2 °F 69.8 °F 83% 29.95 in 8.0 mi South 17.3 mph 24.2 mph N/A   Mostly Cloudy
11:55 AM 75.2 °F 69.8 °F 83% 29.94 in 8.0 mi South 12.7 mph 21.9 mph N/A   Overcast
12:15 PM 75.2 °F 69.8 °F 83% 29.93 in 8.0 mi South 12.7 mph 23.0 mph N/A   Overcast
12:35 PM 75.2 °F 69.8 °F 83% 29.91 in 8.0 mi South 16.1 mph 25.3 mph N/A   Overcast
12:55 PM 75.2 °F 69.8 °F 83% 29.91 in 8.0 mi South 18.4 mph 24.2 mph N/A   Overcast
1:15 PM 75.2 °F 69.8 °F 83% 29.91 in 8.0 mi South 15.0 mph 23.0 mph N/A   Overcast
1:35 PM 75.2 °F 69.8 °F 83% 29.91 in 9.0 mi South 18.4 mph 31.1 mph N/A   Overcast
1:55 PM 75.2 °F 69.8 °F 83% 29.90 in 8.0 mi South 12.7 mph 26.5 mph N/A   Overcast
2:15 PM 77.0 °F 69.8 °F 78% 29.90 in 8.0 mi South 9.2 mph 21.9 mph N/A   Overcast
2:35 PM 75.2 °F 69.8 °F 83% 29.91 in 9.0 mi South 15.0 mph 27.6 mph N/A   Overcast
2:55 PM 75.2 °F 69.8 °F 83% 29.91 in 9.0 mi South 12.7 mph 23.0 mph N/A   Overcast
3:15 PM 75.2 °F 69.8 °F 83% 29.91 in 8.0 mi South 12.7 mph 21.9 mph N/A   Overcast
3:35 PM 75.2 °F 69.8 °F 83% 29.92 in 8.0 mi South 10.4 mph 19.6 mph N/A   Overcast
3:55 PM 75.2 °F 69.8 °F 83% 29.93 in 9.0 mi SSW 11.5 mph 16.1 mph N/A   Overcast
4:15 PM 75.2 °F 69.8 °F 83% 29.94 in 9.0 mi South 10.4 mph 23.0 mph N/A   Overcast
4:35 PM 75.2 °F 69.8 °F 83% 29.95 in 9.0 mi SSW 11.5 mph 20.7 mph N/A   Overcast
4:55 PM 73.4 °F 69.8 °F 88% 29.95 in 8.0 mi SSW 9.2 mph - N/A   Overcast
5:15 PM 73.4 °F 69.8 °F 88% 29.96 in 9.0 mi WSW 5.8 mph - N/A   Overcast
5:35 PM 64.4 °F 60.8 °F 88% 29.98 in 10.0 mi NNW 12.7 mph 23.0 mph N/A   Overcast
5:55 PM 62.6 °F 60.8 °F 94% 30.00 in 4.0 mi NNW 8.1 mph - N/A   Overcast
6:15 PM 60.8 °F 59.0 °F 94% 30.00 in 2.0 mi North 10.4 mph - N/A   Overcast
6:35 PM 60.8 °F 57.2 °F 88% 30.02 in 5.0 mi North 8.1 mph - N/A   Overcast
6:55 PM 60.8 °F 57.2 °F 88% 30.03 in 5.0 mi NNW 8.1 mph - N/A   Overcast
7:15 PM 59.0 °F 57.2 °F 94% 30.03 in 9.0 mi NNW 9.2 mph - N/A   Overcast
7:35 PM 59.0 °F 55.4 °F 88% 30.04 in 7.0 mi North 8.1 mph - N/A   Overcast
7:55 PM 59.0 °F 55.4 °F 88% 30.04 in 10.0 mi North 8.1 mph - N/A   Overcast
8:15 PM 57.2 °F 55.4 °F 94% 30.04 in 10.0 mi North 10.4 mph 18.4 mph N/A   Overcast
8:35 PM 57.2 °F 55.4 °F 94% 30.04 in 10.0 mi NNE 9.2 mph - N/A   Overcast
8:55 PM 57.2 °F 53.6 °F 88% 30.05 in 10.0 mi North 6.9 mph - N/A   Overcast
9:15 PM 55.4 °F 53.6 °F 94% 30.04 in 10.0 mi North 11.5 mph 18.4 mph N/A   Overcast
9:35 PM 55.4 °F 53.6 °F 94% 30.03 in 10.0 mi NNE 11.5 mph 16.1 mph N/A   Overcast
9:55 PM 55.4 °F 53.6 °F 94% 30.04 in 10.0 mi North 9.2 mph 17.3 mph N/A   Overcast
10:15 PM 55.4 °F 53.6 °F 94% 30.03 in 10.0 mi North 9.2 mph - N/A   Overcast
10:35 PM 55.4 °F 51.8 °F 88% 30.05 in 10.0 mi North 10.4 mph 16.1 mph N/A   Overcast
10:55 PM 55.4 °F 51.8 °F 88% 30.05 in 10.0 mi NNE 10.4 mph 17.3 mph N/A   Overcast
11:35 PM 53.6 °F 51.8 °F 94% 30.06 in 10.0 mi NNE 9.2 mph 16.1 mph N/A   Overcast
11:55 PM 53.6 °F 51.8 °F 94% 30.07 in 5.0 mi North 8.1 mph - N/A   Overcast